[Date Prev][Date Next][Thread Prev][Thread Next] - [Date Index][Thread Index][Author Index]
2 Line ISS Keps 9-23
- Subject: [sarex] 2 Line ISS Keps 9-23
- From: "Dr Dave Larsen PhD" <doc@xxxxxxxxxxx>
- Date: Fri, 23 Sep 2005 03:00:46 -0700
ISS
1 25544U 98067A 05266.30207176 .00020995 00000-0 15283-3 0 4122
2 25544 051.6424 118.4650 0001920 081.2894 264.6421 15.73285798391118
----
Via the sarex mailing list at AMSAT.ORG courtesy of AMSAT-NA.
To unsubscribe, send "unsubscribe sarex" to Majordomo@amsat.org
AMSAT Home